Temperature
12 12 12 12 12 12 12 12 12 12 12 12 12 13 13 13 13 14 14 14 14 14 14 14 14 14 14 14 15 15 15 15 15 15 15 15 15 15 15 15 14 14 14
11 11 11 11 11 12 12 12 12 12 12 12 12 12 13 13 13 13 14 14 14 14 14 14 14 14 14 14 14 14 14 14 14 15 14 14 14 14 14 14 14 14 14
11 11 11 11 11 11 11 11 12 12 12 12 12 12 12 13 13 13 13 13 14 14 14 14 14 14 14 14 14 14 14 14 14 14 14 14 14 14 14 14 14 14 13
12 11 11 11 11 11 11 11 11 11 12 12 12 12 12 12 13 13 13 13 13 13 13 13 13 13 14 14 14 14 14 14 14 14 14 14 14 14 14 13 13 13 13
12 11 11 11 11 11 11 11 11 11 11 11 12 12 12 12 12 12 13 13 13 13 13 13 13 13 13 13 13 14 14 14 14 14 14 13 13 13 13 13 13 13 12
12 11 11 11 11 11 11 11 11 11 11 11 12 12 12 12 12 12 12 12 13 13 13 13 13 13 13 13 13 13 13 13 13 13 13 13 13 13 13 13 13 13 12
12 11 11 11 11 11 11 11 11 11 11 11 11 11 12 12 12 12 12 12 12 12 12 13 13 13 13 13 13 13 13 13 13 13 13 13 13 13 13 13 13 13 12
12 11 11 11 11 11 11 11 11 11 11 11 11 11 11 11 11 11 12 12 12 12 12 12 12 12 12 13 13 13 13 13 13 13 13 13 13 13 13 13 13 12 12
12 11 11 11 11 11 11 11 11 11 11 11 11 11 11 11 11 11 11 12 12 12 12 12 12 12 12 12 12 12 12 12 12 12 12 13 13 13 13 12 12 12 12
12 11 11 11 11 11 11 11 11 11 11 11 11 11 11 11 11 11 11 11 12 12 12 12 12 12 12 12 12 12 12 12 12 12 12 12 12 12 12 12 12 12 12
12 11 11 11 11 11 11 11 11 11 11 11 11 11 11 11 11 11 11 11 11 11 12 12 12 12 12 12 12 12 12 12 12 12 12 12 12 12 12 12 12 12 12
12 12 11 11 11 11 11 11 11 11 11 11 11 11 11 11 11 11 11 11 11 11 11 11 11 11 11 11 11 11 11 11 12 12 12 12 11 11 11 11 11 11 11
12 12 12 11 11 11 11 11 11 11 11 11 11 11 11 11 11 11 11 11 11 11 11 11 11 11 11 11 11 11 11 11 11 11 11 11 11 11 11 11 11 11 11
13 12 12 12 12 11 11 11 11 11 11 11 11 11 11 11 11 11 11 11 11 11 11 11 11 11 11 11 11 11 11 11 11 11 11 11 11 10 10 10 11 10 10
13 13 12 12 12 12 11 11 11 11 11 11 11 11 11 11 11 11 11 11 11 11 11 11 11 11 11 11 11 11 11 11 11 11 11 10 10 10 10 10 10 10 10
13 13 13 12 12 12 11 11 11 11 11 11 11 11 11 11 11 11 11 10 10 10 10 11 10 10 10 10 10 10 10 10 10 10 10 10 10 10 10 10 10 10 10
14 13 13 13 12 12 12 11 11 11 11 11 11 11 11 11 11 11 10 10 10 10 10 10 10 10 10 10 10 10 10 10 10 10 10 9 9 9 9 9 9 9 9
14 14 13 13 12 12 12 12 11 11 11 11 11 11 11 11 11 11 10 10 10 10 10 10 10 10 10 10 10 10 9 9 9 9 9 9 9 9 9 9 9 9 9
14 14 13 13 13 12 12 12 12 12 11 11 11 11 11 11 11 11 10 10 10 10 10 10 10 10 10 10 10 9 9 9 9 9 9 9 9 9 9 9 9 8 8
15 14 14 13 13 12 12 12 12 12 12 12 12 11 11 11 11 11 11 11 10 10 10 10 10 10 10 10 10 9 9 9 9 9 9 9 9 9 9 9 8 8 8
15 14 14 13 13 13 12 12 12 12 12 12 12 12 11 11 11 11 11 11 11 11 11 11 11 10 10 10 10 10 9 9 9 9 9 9 9 9 8 8 8 8 8
15 14 14 14 13 13 13 12 12 12 12 12 12 12 12 12 11 11 11 11 11 11 11 11 11 11 11 10 10 10 10 10 9 9 9 9 8 8 8 8 8 8 8
15 14 14 14 13 13 13 13 12 12 12 12 12 12 12 12 12 12 11 11 11 11 11 11 11 11 11 11 11 10 10 10 9 9 9 8 8 8 8 8 8 8 7
15 14 14 14 13 13 13 13 13 12 12 12 12 12 12 12 12 12 12 12 11 11 11 11 11 11 11 11 11 11 10 10 10 9 9 9 8 8 8 8 8 7 7
15 15 14 14 14 13 13 13 13 13 12 12 12 12 12 12 12 12 12 12 12 12 11 11 11 11 11 11 11 11 11 10 10 10 9 9 9 8 8 8 8 7 7
15 15 14 14 14 13 13 13 13 13 12 12 12 12 12 12 12 12 12 12 12 12 12 11 11 11 11 11 11 11 11 11 10 10 10 9 9 9 8 8 8 7 7
Wind_Speed
7 7 8 8 8 8 8 8 7 6 7 7 6 6 5 4 3 1 0 1 2 2 3 4 4 4 4 4 4 4 3 3 3 2 1 2 3 5 5 6 6 6 7
6 6 7 7 8 8 8 8 8 8 7 7 7 6 5 5 4 3 2 1 1 2 3 3 3 4 4 4 4 4 4 4 4 4 2 2 2 5 5 5 5 6 6
5 6 7 8 8 8 8 8 8 8 8 8 7 7 6 5 4 3 3 2 2 2 2 2 2 3 3 3 4 4 4 4 3 4 3 2 2 4 5 5 5 4 6
4 6 6 7 7 7 7 7 8 8 8 8 8 8 7 6 6 5 4 4 4 4 3 2 2 2 3 3 3 4 4 4 4 4 4 3 3 4 5 5 5 4 4
4 5 6 6 6 7 7 7 8 8 9 8 8 8 8 6 6 6 5 5 5 5 4 3 2 2 3 3 3 4 4 4 4 4 4 3 3 5 5 4 6 6 5
3 4 5 6 7 7 7 7 7 8 8 8 8 8 8 7 10 10 7 6 6 6 5 4 3 3 3 4 5 6 6 6 5 4 3 5 4 4 5 6 7 5 3
3 3 4 5 6 7 7 7 8 7 8 8 9 9 8 9 13 13 11 7 6 6 5 4 4 4 5 5 6 7 7 7 6 5 5 5 5 5 7 7 6 5 4
2 2 4 4 5 6 6 7 6 5 6 6 8 8 8 10 13 13 12 8 7 7 6 5 5 4 5 6 7 7 6 5 5 4 4 4 5 6 6 6 7 7 6
1 1 2 3 4 5 6 6 4 4 5 6 6 8 8 9 13 13 10 6 7 7 7 6 6 6 9 9 8 8 8 6 8 11 10 9 10 11 10 8 7 8 5
2 1 1 1 2 3 4 4 4 3 4 5 7 7 8 8 12 12 10 5 6 5 6 7 9 9 9 8 7 7 7 5 6 7 8 9 9 9 9 7 7 8 5
3 2 0 1 1 2 3 3 3 4 5 5 6 7 8 9 11 12 10 5 5 5 5 5 5 10 10 10 8 6 6 6 6 7 7 7 6 5 5 5 5 6 5
3 2 1 1 1 1 3 3 3 4 5 5 5 5 6 7 9 10 12 10 7 5 4 4 4 9 10 10 7 8 10 8 6 6 6 5 5 5 5 6 9 9 7
4 3 2 1 0 1 2 2 3 3 3 3 3 3 4 5 7 11 11 10 9 5 4 6 8 9 9 7 9 10 8 6 5 6 5 4 3 3 4 5 7 9 11
5 4 3 3 1 0 1 1 2 2 2 1 2 2 2 3 4 5 5 5 7 6 4 6 9 10 8 8 7 6 5 4 5 5 4 3 3 3 4 3 4 4 5
5 5 4 4 4 2 1 1 1 2 2 2 1 1 0 2 3 4 3 3 3 2 3 4 5 4 5 5 4 5 4 4 4 3 4 4 4 4 3 3 3 3 4
5 5 5 4 4 3 2 1 2 3 3 3 3 3 2 2 3 3 3 4 4 4 5 4 3 3 3 3 3 3 3 3 3 3 3 3 3 4 3 3 3 4 4
7 6 5 5 5 4 4 4 3 3 4 4 5 5 4 3 2 1 3 4 4 5 4 2 2 2 2 2 2 2 1 1 2 3 3 3 4 4 4 4 4 4 3
8 8 7 6 6 6 5 5 4 4 3 4 5 7 7 5 4 2 1 3 3 3 2 2 2 2 2 2 2 2 1 2 2 2 3 3 3 4 4 4 4 4 3
8 6 6 6 6 6 5 5 5 5 4 4 3 4 6 5 4 4 1 2 2 2 2 2 2 2 2 2 2 2 2 2 2 2 2 3 3 4 3 4 4 5 4
8 11 9 6 5 5 5 5 5 5 5 5 5 5 3 3 2 3 3 3 4 4 4 4 3 3 3 3 3 3 2 2 2 2 2 3 3 4 4 5 4 4 3
8 8 11 7 6 6 6 6 6 5 6 6 6 7 9 6 6 6 5 5 5 6 5 5 4 4 4 3 3 3 4 3 3 3 3 3 3 3 3 4 4 4 4
8 8 7 7 6 6 6 6 6 6 7 7 6 5 11 6 6 6 6 6 7 6 6 6 5 5 5 5 5 5 4 4 3 3 3 3 3 3 4 4 4 4 4
9 9 8 7 7 8 7 6 6 6 7 7 6 6 6 7 7 7 7 7 7 6 6 6 6 6 6 8 9 6 6 6 5 5 5 4 4 4 4 4 5 4 4
10 10 10 8 7 7 7 7 7 7 7 7 7 7 7 8 8 9 8 7 7 6 7 8 8 9 10 10 11 12 12 11 10 9 8 6 6 4 4 4 4 5 5
11 10 10 9 9 8 8 8 7 7 7 7 7 7 7 7 8 8 8 7 8 8 9 10 10 11 13 15 14 15 15 14 13 12 10 6 6 6 5 5 4 4 4
12 11 10 9 9 9 8 8 8 8 7 7 7 7 7 7 8 8 7 7 7 8 8 8 12 15 16 17 19 20 19 18 17 16 13 8 6 6 6 5 6 5 5
Wind_Direction
358 357 3 2 1 6 9 5 2 2 5 5 359 359 359 356 351 355 288 184 178 174 167 172 181 178 174 174 168 165 169 161 173 192 172 156 155 150 145 153 162 166 177
1 6 6 3 4 10 8 3 4 8 9 8 8 11 10 6 9 22 27 48 150 154 152 154 169 171 170 175 176 175 177 173 169 177 170 165 161 161 150 147 143 148 143
11 15 11 6 6 6 4 3 7 11 11 12 14 16 13 12 20 31 39 46 77 103 119 131 154 153 170 177 180 179 177 176 164 162 168 158 137 146 136 132 130 122 135
20 21 15 5 2 2 4 5 7 10 14 14 13 15 16 23 29 39 49 56 65 76 82 97 118 145 170 171 172 172 169 166 160 156 152 143 137 140 137 138 128 115 117
28 22 10 2 3 6 10 10 11 13 16 11 15 18 18 27 34 44 57 66 68 70 65 65 71 101 142 155 163 168 159 155 152 153 150 141 140 145 146 138 129 116 94
38 18 9 10 10 9 7 10 14 14 12 19 23 22 25 32 42 52 63 68 67 68 63 52 54 59 88 115 128 133 145 149 151 147 148 153 154 146 136 138 136 132 121
46 20 13 13 13 7 10 15 14 13 17 23 21 25 28 30 46 53 60 65 62 54 49 47 54 58 68 85 94 93 90 104 125 142 151 158 156 157 147 144 142 131 123
51 16 12 16 12 8 14 14 10 12 18 21 23 25 30 33 44 52 58 60 60 51 45 47 59 53 72 90 91 81 73 70 88 102 124 139 146 148 147 142 133 108 97
71 356 355 13 16 13 12 6 6 18 24 24 24 29 31 25 36 49 58 59 58 47 43 45 55 62 75 88 95 93 83 70 72 82 87 96 111 124 129 125 126 129 126
212 240 293 358 18 12 7 7 9 24 28 32 36 28 28 24 32 47 58 63 59 46 39 40 49 61 67 74 92 100 96 84 84 77 71 73 82 95 110 130 143 143 133
204 194 234 325 351 14 20 19 22 33 39 39 40 28 26 23 27 40 50 59 62 58 49 36 39 57 65 70 79 89 100 98 90 87 81 75 72 72 72 84 109 137 136
190 183 207 289 326 49 47 31 33 46 50 41 40 28 19 16 23 36 47 52 57 66 53 32 41 59 67 70 79 92 92 91 89 89 87 82 80 76 72 79 83 79 79
188 195 206 209 350 50 71 59 48 48 56 43 45 34 9 8 15 31 41 46 47 56 51 55 60 62 63 66 80 88 89 91 96 96 97 89 81 86 83 78 71 74 67
194 204 202 193 210 341 84 92 91 75 65 50 46 29 9 8 7 8 14 26 33 40 43 47 54 59 63 63 68 70 71 90 104 106 103 91 83 83 83 86 87 77 70
195 204 200 195 192 193 194 211 189 213 201 189 211 217 58 357 327 344 15 19 17 26 55 53 49 51 57 56 58 62 66 75 83 90 102 102 97 96 87 80 87 81 90
194 203 201 197 197 193 194 255 296 257 261 229 211 202 236 249 299 355 18 22 32 72 80 71 67 69 75 79 83 74 68 82 90 103 108 111 111 109 99 86 91 105 112
194 199 199 199 200 199 198 203 241 286 279 269 253 238 234 245 273 332 11 31 54 85 87 96 105 109 104 97 98 100 96 90 105 114 121 125 125 120 116 117 116 112 112
197 199 195 200 201 202 205 207 207 214 243 266 260 245 242 245 253 259 351 63 51 58 114 147 156 151 141 135 129 123 114 102 104 116 127 132 134 132 132 137 141 141 136
195 198 198 200 202 204 207 207 209 213 220 231 243 257 242 244 260 258 199 152 179 192 193 192 190 179 172 166 159 149 143 141 142 138 140 145 145 137 141 149 150 152 144
198 203 195 197 203 206 207 209 214 217 220 219 222 226 202 176 216 232 209 201 200 207 204 200 201 195 185 177 171 162 154 152 151 153 159 159 154 151 156 158 158 159 167
195 203 202 197 203 206 208 213 216 216 219 222 227 221 191 193 212 218 214 211 211 211 208 204 200 196 191 182 175 176 174 179 184 178 171 168 159 157 164 164 167 165 160
191 195 195 201 207 211 215 216 214 216 220 225 231 231 209 206 215 218 220 221 219 215 206 197 200 201 195 191 186 181 183 190 196 190 184 180 174 167 162 161 165 165 165
192 195 198 205 208 216 220 220 217 219 223 223 221 217 206 212 221 222 224 223 217 214 207 199 200 206 208 206 200 188 188 197 198 187 181 181 180 178 170 172 172 169 180
196 199 202 206 208 212 216 221 220 220 222 224 221 218 216 217 221 225 225 222 215 212 206 203 205 208 207 207 208 207 206 206 202 196 186 181 182 182 177 179 183 185 190
199 202 204 206 208 212 216 219 221 223 224 225 224 223 221 219 222 226 224 219 213 213 211 208 210 213 213 209 208 211 212 209 203 197 189 178 182 184 183 186 187 186 188
203 205 207 207 208 211 213 217 220 222 224 226 225 223 221 220 221 223 220 216 214 215 215 212 213 213 213 213 215 215 213 210 206 200 192 182 182 188 187 192 194 192 195
Height
1523 1519 1515 1512 1508 1505 1502 1500 1497 1494 1492 1489 1487 1485 1484 1483 1483 1483 1484 1486 1487 1489 1491 1492 1494 1496 1499 1501 1504 1507 1509 1512 1514 1517 1519 1521 1523 1525 1527 1529 1531 1533 1535
1524 1520 1517 1513 1510 1507 1504 1501 1498 1495 1492 1490 1488 1485 1484 1483 1482 1482 1483 1484 1486 1487 1488 1490 1492 1494 1496 1498 1501 1503 1506 1508 1511 1513 1516 1518 1520 1522 1524 1526 1528 1530 1532
1525 1521 1518 1514 1511 1508 1505 1502 1499 1496 1494 1491 1488 1486 1484 1483 1482 1482 1483 1484 1485 1486 1487 1489 1491 1492 1494 1496 1498 1500 1503 1505 1508 1510 1513 1515 1517 1520 1522 1524 1526 1528 1530
1526 1523 1519 1516 1513 1510 1507 1504 1501 1498 1495 1492 1489 1487 1485 1484 1483 1483 1483 1484 1485 1486 1487 1489 1490 1491 1493 1494 1496 1498 1500 1503 1505 1508 1510 1512 1515 1517 1520 1522 1524 1527 1529
1527 1524 1521 1518 1515 1512 1509 1506 1503 1500 1497 1494 1491 1489 1487 1486 1485 1485 1485 1485 1486 1487 1488 1489 1490 1491 1492 1493 1495 1496 1498 1500 1503 1505 1507 1510 1512 1514 1517 1519 1522 1524 1527
1529 1526 1523 1520 1517 1514 1511 1508 1505 1502 1499 1496 1494 1492 1490 1489 1488 1487 1486 1487 1487 1487 1488 1489 1489 1490 1491 1493 1494 1496 1497 1499 1501 1503 1505 1507 1510 1512 1515 1517 1520 1523 1525
1530 1527 1524 1522 1519 1516 1513 1511 1508 1505 1502 1499 1497 1495 1494 1492 1491 1490 1489 1488 1488 1489 1489 1489 1490 1490 1491 1493 1494 1495 1497 1498 1501 1502 1504 1506 1509 1511 1513 1516 1519 1522 1524
1530 1528 1526 1523 1521 1518 1516 1513 1511 1508 1506 1503 1501 1499 1497 1496 1495 1493 1492 1491 1491 1491 1491 1491 1491 1492 1493 1494 1495 1496 1497 1499 1501 1503 1505 1507 1509 1512 1514 1516 1519 1521 1524
1531 1529 1527 1525 1523 1520 1518 1516 1514 1511 1509 1507 1505 1503 1501 1499 1498 1497 1495 1494 1494 1494 1494 1494 1494 1494 1495 1496 1497 1497 1498 1500 1502 1504 1506 1507 1510 1512 1514 1516 1519 1521 1524
1532 1530 1528 1526 1524 1522 1520 1518 1516 1514 1512 1510 1508 1506 1504 1502 1501 1500 1499 1498 1497 1496 1497 1497 1497 1497 1497 1498 1499 1500 1500 1502 1503 1505 1507 1509 1511 1513 1515 1517 1519 1521 1523
1533 1531 1529 1527 1526 1524 1522 1520 1518 1517 1515 1513 1511 1509 1507 1505 1504 1503 1502 1501 1500 1500 1500 1500 1500 1501 1501 1501 1502 1502 1503 1504 1506 1507 1509 1511 1513 1514 1516 1518 1520 1522 1524
1533 1532 1530 1528 1527 1525 1524 1522 1520 1519 1517 1515 1513 1512 1510 1508 1507 1506 1505 1504 1503 1503 1503 1503 1503 1503 1504 1504 1505 1505 1506 1507 1508 1509 1511 1512 1514 1515 1517 1518 1520 1522 1524
1533 1532 1531 1529 1528 1526 1525 1523 1522 1520 1519 1517 1515 1514 1512 1510 1509 1508 1507 1507 1506 1506 1505 1505 1506 1506 1506 1507 1507 1508 1509 1510 1510 1511 1513 1514 1515 1517 1518 1519 1521 1523 1524
1532 1531 1530 1529 1528 1527 1526 1524 1523 1521 1520 1518 1517 1515 1514 1512 1511 1510 1509 1509 1508 1508 1508 1508 1508 1508 1509 1509 1510 1511 1511 1512 1513 1513 1514 1516 1517 1518 1519 1521 1522 1523 1525
1531 1530 1530 1529 1528 1527 1526 1525 1524 1522 1521 1520 1518 1517 1515 1514 1513 1512 1511 1511 1510 1510 1510 1510 1510 1510 1511 1511 1512 1513 1513 1514 1514 1515 1516 1517 1518 1519 1520 1521 1523 1524 1525
1529 1529 1528 1528 1527 1527 1526 1525 1524 1523 1522 1520 1519 1518 1516 1515 1514 1513 1513 1512 1512 1512 1512 1511 1511 1512 1512 1513 1513 1514 1514 1515 1516 1516 1517 1518 1519 1520 1521 1522 1523 1524 1525
1527 1527 1526 1526 1526 1525 1525 1524 1523 1523 1522 1520 1519 1518 1517 1516 1515 1514 1513 1513 1513 1513 1512 1512 1512 1512 1513 1513 1514 1514 1515 1515 1516 1517 1518 1518 1519 1520 1521 1522 1523 1524 1525
1524 1524 1524 1524 1524 1523 1523 1523 1522 1522 1521 1520 1519 1518 1517 1516 1515 1514 1514 1513 1513 1513 1513 1513 1513 1513 1513 1513 1514 1514 1515 1515 1516 1517 1518 1519 1519 1520 1521 1522 1523 1524 1525
1520 1520 1521 1521 1521 1521 1521 1521 1520 1520 1520 1519 1519 1518 1517 1516 1515 1514 1514 1513 1513 1512 1512 1512 1512 1512 1512 1513 1513 1513 1514 1515 1516 1516 1517 1518 1519 1520 1521 1522 1523 1524 1525
1516 1516 1517 1517 1517 1517 1517 1518 1518 1518 1517 1517 1517 1516 1516 1515 1514 1513 1513 1512 1512 1511 1511 1511 1511 1511 1511 1511 1512 1512 1513 1514 1515 1515 1516 1517 1518 1519 1520 1521 1522 1523 1524
1511 1512 1512 1512 1513 1513 1513 1514 1514 1514 1514 1514 1514 1514 1514 1513 1513 1512 1511 1511 1510 1510 1510 1509 1509 1509 1509 1510 1510 1511 1511 1512 1513 1514 1515 1516 1517 1518 1518 1519 1520 1521 1522
1506 1506 1507 1507 1508 1508 1509 1509 1510 1510 1510 1510 1510 1511 1511 1510 1510 1510 1509 1509 1508 1508 1508 1508 1507 1507 1507 1508 1508 1508 1509 1510 1510 1511 1513 1514 1515 1516 1516 1517 1518 1519 1520
1499 1500 1501 1502 1502 1503 1504 1504 1505 1505 1506 1506 1506 1507 1507 1507 1507 1507 1507 1507 1506 1506 1506 1505 1505 1505 1505 1505 1506 1506 1507 1507 1508 1509 1510 1511 1512 1513 1514 1515 1516 1516 1517
1492 1493 1494 1495 1496 1497 1498 1499 1499 1500 1501 1501 1502 1502 1502 1502 1503 1503 1503 1503 1503 1503 1503 1503 1503 1503 1503 1503 1503 1503 1504 1505 1505 1506 1507 1508 1509 1510 1511 1512 1513 1513 1514
1485 1486 1487 1488 1489 1490 1491 1492 1493 1494 1495 1496 1496 1497 1497 1498 1498 1499 1499 1499 1499 1499 1499 1499 1499 1499 1500 1500 1500 1500 1501 1501 1502 1503 1504 1504 1505 1506 1507 1508 1509 1510 1511
1477 1478 1480 1481 1482 1483 1485 1486 1487 1488 1489 1489 1490 1491 1491 1492 1493 1493 1494 1494 1495 1495 1495 1496 1496 1496 1496 1496 1497 1497 1497 1498 1498 1499 1500 1500 1501 1502 1503 1504 1505 1506 1507